Terminal Aerodrome Forecast
Issued by NWS Missoula, MT

Home | Current Version | Previous Version | Text Only | Print | Product List | Glossary On
Versions: 1 2 3 4 5 6 7 8 9 10 11 12 13 14 15 16 17 18 19 20 21 22 23 24 25 26 27 28 29 30 31 32 33 34 35 36 37 38 39 40 41 42 43 44 45 46 47 48 49 50
556
FTUS45 KMSO 140520
TAFGPI
TAF
KGPI 140520Z 1406/1506 00000KT 3SM BR FEW004 OVC040
     FM141300 00000KT 1/2SM FZFG SCT003 OVC010
     FM141700 00000KT 5SM BR OVC025=

USA.gov is the U.S. government's official web portal to all federal, state and local government web resources and services.